#timestamp,LO_Frequency,Hit,StdDev 
1612299615.5,286047005.1,N
1612299635.3,286047009.0,N
1612299655.1,286047005.8,N
1612299675.9,286047004.2,N
1612299695.7,286047003.4,N
1612299715.6,286047005.4,N
1612299735.4,286047000.2,N
1612299755.2,286046997.3,N
1612299775.1,286046996.8,N
1612299776.0,286046996.8,N
1612299795.8,286046998.2,N
1612299815.7,286047010.2,N
1612299835.5,286047006.7,N
1612299855.3,286047001.4,N
1612299875.2,286047005.2,N
1612299895.9,286047003.7,N
1612299915.7,286047008.2,N
1612299935.6,286047004.5,N
1612299955.4,286047001.5,N
1612299975.3,286047000.2,N
1612299995.1,286046996.8,N
1612299996.0,286046996.8,N
1612300015.8,286047000.9,N
1612300035.7,286047001.4,N
1612300055.5,286047004.1,N
1612300075.3,286047002.0,N
1612300095.2,286047003.9,N
1612300115.0,286047002.3,N
1612300115.9,286047002.3,N
1612300135.8,286047004.5,N
1612300155.6,286047001.2,N
1612300175.4,286046998.0,N
1612300195.3,286046999.4,N
1612300215.1,286047007.5,N
1612300235.9,286047005.3,N
1612300255.7,286047005.0,N
1612300275.5,286047007.7,N
1612300295.4,286047013.9,Y
1612300315.2,286047006.3,P
1612300335.0,286047002.4,N
1612300335.9,286047002.4,N
1612300385.8,286047003.0,E
1612300395.7,286047005.9,N
1612300415.5,286047000.3,P
1612300435.4,286047002.5,N
1612300455.2,286047001.8,N
1612300475.1,286047001.1,N
1612300476.0,286047001.1,N
1612300495.8,286046998.9,N
1612300515.6,286047002.0,N
1612300535.5,286047005.5,N
1612300555.3,286047001.1,N
1612300575.2,286047001.0,N
1612300595.9,286047004.6,N
1612300615.7,286047009.1,Y
1612300635.6,286047005.4,P
1612300655.4,286047004.5,N
1612300675.2,286047005.9,P
1612300695.1,286046999.7,N
1612300696.0,286046999.7,N
1612300715.8,286046998.1,N
1612300735.7,286047002.2,N
1612300755.5,286047004.2,N
1612300775.3,286047004.8,N
1612300795.2,286047008.9,Y
1612300815.0,286047000.9,P
1612300815.9,286047000.9,N
1612300835.8,286046997.2,P
1612300855.6,286046997.7,N
1612300875.5,286047001.1,N
1612300895.3,286046999.5,N
1612300915.1,286046993.9,Y
1612300935.9,286046996.3,P
1612300955.7,286046995.4,N
1612300975.6,286046994.4,N
1612300995.4,286046994.6,N
1612301015.2,286046997.2,N
1612301035.1,286046999.0,N
1612301036.0,286046999.0,N
1612301055.8,286046996.0,N
1612301075.7,286046991.1,Y
1612301095.5,286046987.3,P
1612301115.3,286046986.4,N
1612301135.2,286046989.9,N
1612301155.9,286046991.5,N
1612301175.7,286046994.7,N
1612301195.6,286046990.4,N
1612301215.4,286046990.2,N
1612301235.3,286047000.0,N
1612301255.1,286047002.2,N
1612301256.0,286047002.2,N
1612301275.8,286047007.3,N
1612301295.7,286047005.5,N
1612301315.5,286047000.3,N
1612301335.3,286046999.6,N
1612301355.2,286046999.7,N
1612301375.0,286046996.6,N
1612301375.9,286046996.6,N
1612301395.8,286046999.5,N
1612301415.6,286046997.8,N
1612301435.4,286046996.4,N
1612301455.3,286046999.9,N
1612301475.1,286047000.8,N
1612301495.9,286046999.0,N
1612301515.7,286046999.1,N
1612301535.5,286046998.8,N
1612301555.4,286046995.7,N
1612301575.2,286046990.1,N
1612301595.0,286046992.8,N
1612301595.9,286046992.8,N
1612301615.8,286046988.9,N
1612301635.6,286046990.2,N
1612301655.5,286046993.1,N
1612301675.3,286046990.6,N
1612301695.1,286046992.0,N
1612301715.9,286046992.6,N
1612301735.7,286046992.7,N
1612301755.6,286046994.8,N
1612301775.4,286046990.2,N
1612301795.2,286046984.3,Y
1612301815.1,286046988.4,P
1612301816.0,286046988.4,N
1612301835.8,286046984.9,P
1612301855.7,286046986.3,Y
1612301875.5,286046996.1,P
1612301895.3,286046995.8,N
1612301915.2,286046994.2,N
1612301935.0,286046992.1,Y
1612301935.9,286046992.1,P
1612301955.7,286047010.8,P
1612301975.6,286047005.4,N
1612301995.4,286047007.5,N
1612302015.3,286047006.2,N
1612302035.1,286047007.1,N
1612302036.0,286047007.1,N
1612302055.8,286047003.6,N
1612302075.7,286047001.9,N
1612302095.5,286046996.8,N
1612302115.4,286046999.7,N
1612302135.2,286047001.6,N
1612302155.0,286047002.6,N
1612302155.9,286047002.6,N
1612302175.8,286047001.8,N
1612302195.6,286047004.6,N
1612302215.4,286047004.7,N
1612302235.3,286047007.1,N
1612302255.1,286047011.3,N
1612302275.9,286047011.9,N
1612302295.7,286047011.8,N
1612302315.5,286047010.2,N
1612302335.4,286047011.9,N
1612302355.2,286047005.4,N
1612302375.0,286047002.9,N
1612302375.9,286047002.9,N
1612302395.8,286047003.6,N
1612302415.6,286047003.1,N
1612302435.5,286047013.2,N
1612302455.3,286047018.7,Y
1612302475.1,286047017.0,P
1612302495.9,286047015.9,N
1612302515.7,286047012.6,N
1612302535.6,286047012.9,N
1612302555.4,286047017.9,Y
1612302575.2,286047008.6,P
1612302595.1,286047012.2,P
1612302596.0,286047012.2,P
1612302615.8,286047013.4,Y
1612302635.6,286047001.9,P
1612302655.5,286046999.5,N
1612302675.3,286046996.8,N
1612302695.2,286046991.8,N
1612302715.9,286046987.0,N
1612302735.7,286046982.3,N
1612302755.6,286046993.2,N
1612302775.4,286046990.2,N
1612302795.2,286046991.5,N
1612302815.1,286046986.1,N
1612302816.0,286046986.1,N
1612302835.8,286046987.6,N
1612302855.7,286046996.0,N
1612302875.5,286046999.0,N
1612302895.3,286046996.4,N
1612302915.2,286046994.7,N
1612302935.0,286046992.2,N
1612302935.9,286046992.2,N
1612302955.7,286046990.3,N
1612302975.6,286046990.8,N
1612302995.4,286046992.4,N
1612303015.3,286046996.0,N
1612303035.1,286046989.9,N
1612303036.0,286046989.9,N
1612303055.8,286046983.6,N
1612303075.7,286046982.1,N
1612303095.5,286046980.9,Y
1612303115.4,286046984.1,P
1612303135.2,286046983.8,P
1612303155.0,286046994.0,N
1612303155.9,286046994.0,N
1612303175.8,286046998.5,N
1612303195.6,286046997.9,N
